Location: Croissy-Beaubourg
(48.8283°N, 2.6696°E)
Time: 22:55:08
(UTC+00:00)

Cosmos 1328 - Pass Details

Date: 16 October 2021
Orbit: 528 x 552 km, 82.5° (Epoch: 07 December)

Event Time Altitude Azimuth Distance (km) Brightness Sun altitude
Rises 18:16:35 0° 355° (N) 2,728 7.5 -13.8°
Reaches altitude 10° 18:18:50 10° 2° (N) 1,833 6.5 -14.1°
Maximum altitude 18:22:42 44° 76° (ENE) 772 4.1 -14.8°
Enters shadow 18:25:58 14° 146° (SE) 1,601 5.8 -15.3°
